FW6228 Weather Reports


time (UTC)temp
C
wind
direction
speed
KPH
gust
KPH
rain 1hr
cm
rain 24hr
cm
rain mn
cm
humidity
%
barometer
mb
20260902060655 26 94 0.0 6.4 0.00 0.00 0.00 84 1013.5
20260902060155 26 94 0.0 6.4 0.00 0.00 0.00 84 1013.5
20260902055654 26 94 0.0 3.2 0.00 0.00 0.00 84 1013.5
20260902055155 26 94 0.0 3.2 0.00 0.00 0.00 84 1013.6
20260902053654 26 94 0.0 11.3 0.00 0.00 0.00 84 1013.7
20260902053155 26 94 0.0 4.8 0.00 0.00 0.00 84 1013.6
20260902052654 26 94 0.0 6.4 0.00 0.00 0.00 84 1013.7
20260902051654 26 94 0.0 4.8 0.00 0.00 0.00 85 1013.6
20260902051154 26 94 0.0 3.2 0.00 0.00 0.00 84 1013.7
20260902050654 26 94 3.2 8.0 0.00 0.00 0.00 84 1013.8
20260902050154 26 94 3.2 8.0 0.00 0.00 0.00 84 1013.7
20260902045654 26 94 0.0 8.0 0.00 0.00 0.00 83 1013.8
20260902045153 26 94 0.0 4.8 0.00 0.00 0.00 83 1013.9
20260902044653 26 94 0.0 4.8 0.00 0.00 0.00 83 1013.7
20260902044154 26 94 1.6 4.8 0.00 0.00 0.00 83 1013.8
20260902043654 26 94 0.0 4.8 0.00 0.00 0.00 84 1013.7
20260902042653 26 94 0.0 6.4 0.00 0.00 0.00 84 1013.7
20260902042153 26 94 0.0 9.7 0.00 0.00 0.00 84 1013.7
20260902041653 26 94 0.0 9.7 0.00 0.00 0.00 84 1013.7
20260902041153 26 94 1.6 11.3 0.00 0.00 0.00 84 1013.7
20260902040153 26 94 1.6 6.4 0.00 0.00 0.00 84 1013.7
20260902035153 26 94 0.0 8.0 0.00 0.00 0.00 84 1013.6
20260902034652 26 94 0.0 8.0 0.00 0.00 0.00 84 1013.7
20260902034153 26 94 1.6 6.4 0.00 0.00 0.00 84 1013.6
20260902033653 27 94 3.2 8.0 0.00 0.00 0.00 83 1013.7
20260902033153 27 94 4.8 8.0 0.00 0.00 0.00 83 1013.6
20260902032653 27 94 0.0 8.0 0.00 0.00 0.00 83 1013.5
20260902032153 27 94 1.6 8.0 0.00 0.00 0.00 82 1013.5
20260902031152 27 94 0.0 9.7 0.00 0.00 0.00 82 1013.8
20260902030152 27 94 3.2 9.7 0.00 0.00 0.00 82 1013.8
20260902025652 27 94 0.0 4.8 0.00 0.00 0.00 82 1013.7
20260902025152 27 94 3.2 4.8 0.00 0.00 0.00 82 1013.7
20260902024652 27 94 0.0 4.8 0.00 0.00 0.00 82 1013.7
20260902024152 27 94 0.0 4.8 0.00 0.00 0.00 82 1013.6
20260902023652 27 94 0.0 4.8 0.00 0.00 0.00 82 1013.6
20260902023151 27 94 0.0 6.4 0.00 0.00 0.00 82 1013.6
20260902022152 28 94 3.2 6.4 0.00 0.00 0.00 81 1013.6
20260902021651 28 94 0.0 6.4 0.00 0.00 0.00 81 1013.6
20260902021151 28 94 3.2 8.0 0.00 0.00 0.00 81 1013.5
20260902020651 27 94 1.6 8.0 0.00 0.00 0.00 81 1013.5
20260902015651 27 94 3.2 8.0 0.00 0.00 0.00 82 1013.3
20260902015151 27 94 0.0 8.0 0.00 0.00 0.00 82 1013.3
20260902014651 27 94 1.6 8.0 0.00 0.00 0.00 82 1013.2
20260902013651 28 94 0.0 12.9 0.00 0.00 0.00 82 1013.1
20260902013151 28 94 1.6 12.9 0.00 0.00 0.00 81 1013.0
20260902012651 28 94 4.8 9.7 0.00 0.00 0.00 81 1012.9
20260902012151 28 94 0.0 8.0 0.00 0.00 0.00 80 1012.8
20260902011151 29 94 0.0 6.4 0.00 0.00 0.00 79 1012.8
20260902010150 29 94 0.0 8.0 0.00 0.00 0.00 79 1012.8
20260902005150 30 94 0.0 4.8 0.00 0.00 0.00 78 1012.6
20260902004650 30 94 0.0 4.8 0.00 0.00 0.00 77 1012.6
20260902004150 30 94 0.0 3.2 0.00 0.00 0.00 77 1012.6
20260902003650 30 94 0.0 6.4 0.00 0.00 0.00 77 1012.5
20260902003150 30 94 0.0 6.4 0.00 0.00 0.00 76 1012.6
20260902002650 30 94 1.6 6.4 0.00 0.00 0.00 75 1012.8
20260902002150 31 94 4.8 6.4 0.00 0.00 0.00 74 1012.8
20260902001650 31 94 3.2 4.8 0.00 0.00 0.00 74 1012.8
20260902001150 31 94 1.6 6.4 0.00 0.00 0.00 74 1012.8
20260902000650 31 94 0.0 6.4 0.00 0.00 0.00 73 1012.8
20260901235650 32 94 0.0 6.4 0.00 0.00 0.00 73 1012.8
20260901235149 32 94 0.0 6.4 0.00 0.00 0.00 72 1012.8
20260901234649 32 94 0.0 4.8 0.00 0.00 0.00 72 1012.8
20260901234149 33 94 1.6 4.8 0.00 0.00 0.00 71 1013.0
20260901233649 33 94 1.6 4.8 0.00 0.00 0.00 70 1013.0
20260901233149 33 94 1.6 4.8 0.00 0.00 0.00 69 1012.9
20260901232649 34 94 0.0 4.8 0.00 0.00 0.00 67 1013.0
20260901231649 35 94 0.0 6.4 0.00 0.00 0.00 64 1013.0
20260901230649 35 94 1.6 4.8 0.00 0.00 0.00 63 1013.1
20260901225649 35 94 0.0 6.4 0.00 0.00 0.00 62 1013.1
20260901225149 35 94 1.6 6.4 0.00 0.00 0.00 61 1013.1
20260901224649 36 94 1.6 4.8 0.00 0.00 0.00 61 1013.1
20260901223648 35 94 0.0 9.7 0.00 0.00 0.00 59 1013.1
20260901223148 35 94 1.6 9.7 0.00 0.00 0.00 58 1013.2
20260901222648 35 94 0.0 11.3 0.00 0.00 0.00 58 1013.2
20260901222148 35 94 1.6 12.9 0.00 0.00 0.00 58 1013.2
20260901220648 36 94 3.2 6.4 0.00 0.00 0.00 61 1013.2
20260901215648 36 94 4.8 9.7 0.00 0.00 0.00 60 1013.3
20260901215148 36 94 3.2 9.7 0.00 0.00 0.00 58 1013.3
20260901214647 36 94 4.8 8.0 0.00 0.00 0.00 57 1013.3
20260901214148 36 94 1.6 6.4 0.00 0.00 0.00 59 1013.2
20260901213648 36 94 3.2 6.4 0.00 0.00 0.00 58 1013.1
20260901213147 36 94 3.2 6.4 0.00 0.00 0.00 58 1013.2
20260901212147 35 94 1.6 9.7 0.00 0.00 0.00 59 1013.1
20260901205648 35 94 1.6 17.7 0.00 0.00 0.00 60 1013.2
20260901204647 35 94 3.2 17.7 0.00 0.00 0.00 60 1013.3
20260901204147 35 94 6.4 17.7 0.00 0.00 0.00 60 1013.4
20260901203647 35 94 1.6 9.7 0.00 0.00 0.00 62 1013.4
20260901203147 35 94 0.0 14.5 0.00 0.00 0.00 61 1013.4
20260901202647 35 94 1.6 14.5 0.00 0.00 0.00 60 1013.5
20260901202147 35 94 1.6 12.9 0.00 0.00 0.00 61 1013.5
20260901201647 35 94 1.6 14.5 0.00 0.00 0.00 63 1013.5
20260901200646 35 94 3.2 9.7 0.00 0.00 0.00 61 1013.6
20260901200146 35 94 0.0 11.3 0.00 0.00 0.00 61 1013.6
20260901195646 35 94 3.2 11.3 0.00 0.00 0.00 60 1013.6
20260901195146 35 94 3.2 12.9 0.00 0.00 0.00 60 1013.7
20260901194646 35 94 9.7 14.5 0.00 0.00 0.00 60 1013.7
20260901193646 35 94 4.8 20.9 0.00 0.00 0.00 59 1013.7
20260901192146 35 94 1.6 12.9 0.00 0.00 0.00 60 1013.7
20260901191646 35 94 9.7 11.3 0.00 0.00 0.00 61 1013.7
20260901191146 35 94 4.8 12.9 0.00 0.00 0.00 61 1013.8
20260901190646 35 94 3.2 12.9 0.00 0.00 0.00 62 1013.8
20260901190146 35 94 3.2 14.5 0.00 0.00 0.00 61 1013.9
20260901185645 35 94 3.2 14.5 0.00 0.00 0.00 60 1013.9
20260901185145 35 94 4.8 12.9 0.00 0.00 0.00 61 1014.0
20260901184145 35 94 8.0 12.9 0.00 0.00 0.00 60 1013.9
20260901183145 35 94 1.6 14.5 0.00 0.00 0.00 61 1014.0
20260901182646 35 94 6.4 14.5 0.00 0.00 0.00 60 1013.9
20260901182145 35 94 3.2 11.3 0.00 0.00 0.00 62 1014.0
20260901181645 35 94 1.6 11.3 0.00 0.00 0.00 61 1014.1
20260901181145 35 94 3.2 14.5 0.00 0.00 0.00 63 1014.0
20260901180645 35 94 6.4 14.5 0.00 0.00 0.00 63 1014.0
20260901180145 34 94 8.0 12.9 0.00 0.00 0.00 63 1014.1
20260901175645 34 94 8.0 14.5 0.00 0.00 0.00 63 1014.2
20260901175145 34 94 3.2 16.1 0.00 0.00 0.00 62 1014.2
20260901174645 34 94 3.2 16.1 0.00 0.00 0.00 62 1014.2
20260901174144 34 94 3.2 16.1 0.00 0.00 0.00 64 1014.2
20260901173644 34 94 1.6 11.3 0.00 0.00 0.00 64 1014.2
20260901173144 34 94 4.8 11.3 0.00 0.00 0.00 64 1014.4
20260901172644 33 94 1.6 9.7 0.00 0.00 0.00 65 1014.4
20260901171644 33 94 3.2 12.9 0.00 0.00 0.00 67 1014.5
20260901171144 33 94 9.7 12.9 0.00 0.00 0.00 67 1014.4
20260901170644 33 94 0.0 11.3 0.00 0.00 0.00 69 1014.4
20260901170144 33 94 9.7 11.3 0.00 0.00 0.00 70 1014.5
20260901165644 33 94 1.6 11.3 0.00 0.00 0.00 70 1014.5
20260901164644 33 94 4.8 11.3 0.00 0.00 0.00 70 1014.5
20260901164143 33 94 6.4 14.5 0.00 0.00 0.00 71 1014.5
20260901163644 33 94 9.7 14.5 0.00 0.00 0.00 69 1014.5
20260901163144 33 94 1.6 12.9 0.00 0.00 0.00 72 1014.4
20260901162644 33 94 3.2 11.3 0.00 0.00 0.00 72 1014.4
20260901162144 32 94 4.8 11.3 0.00 0.00 0.00 71 1014.4
20260901161643 32 94 0.0 8.0 0.00 0.00 0.00 73 1014.5
20260901161143 32 94 4.8 8.0 0.00 0.00 0.00 74 1014.5
20260901160643 32 94 3.2 9.7 0.00 0.00 0.00 73 1014.4
20260901160143 32 94 8.0 9.7 0.00 0.00 0.00 73 1014.4
20260901155643 32 94 3.2 9.7 0.00 0.00 0.00 73 1014.5
20260901155143 31 94 1.6 12.9 0.00 0.00 0.00 74 1014.6
20260901154643 31 94 6.4 12.9 0.00 0.00 0.00 74 1014.6
20260901154143 31 94 3.2 11.3 0.00 0.00 0.00 74 1014.6
20260901153643 31 94 3.2 11.3 0.00 0.00 0.00 74 1014.6
20260901153143 31 94 3.2 6.4 0.00 0.00 0.00 76 1014.7
20260901152642 31 94 4.8 6.4 0.00 0.00 0.00 75 1014.7
20260901152143 31 94 0.0 4.8 0.00 0.00 0.00 78 1014.8
20260901151642 30 94 3.2 9.7 0.00 0.00 0.00 76 1014.9
20260901151142 30 94 4.8 9.7 0.00 0.00 0.00 76 1014.9
20260901150642 30 94 0.0 6.4 0.00 0.00 0.00 76 1014.8
20260901150142 30 94 1.6 9.7 0.00 0.00 0.00 77 1014.7
20260901145643 30 94 3.2 9.7 0.00 0.00 0.00 77 1014.7
20260901145142 29 94 3.2 6.4 0.00 0.00 0.00 78 1014.7
20260901144142 29 94 1.6 8.0 0.00 0.00 0.00 77 1014.7
20260901143642 29 94 0.0 8.0 0.00 0.00 0.00 80 1014.7
20260901143142 28 94 3.2 8.0 0.00 0.00 0.00 80 1014.6
20260901142642 28 94 6.4 8.0 0.00 0.00 0.00 81 1014.7
20260901142142 28 94 0.0 8.0 0.00 0.00 0.00 82 1014.7
20260901141642 27 94 0.0 8.0 0.00 0.00 0.00 82 1014.6
20260901141141 27 94 1.6 6.4 0.00 0.00 0.00 82 1014.6
20260901140141 27 94 3.2 4.8 0.00 0.00 0.00 84 1014.5
20260901135642 26 94 0.0 6.4 0.00 0.00 0.00 84 1014.6
20260901135141 26 94 0.0 6.4 0.00 0.00 0.00 85 1014.7
20260901134642 26 94 3.2 6.4 0.00 0.00 0.00 85 1014.7
20260901134141 26 94 4.8 8.0 0.00 0.00 0.00 85 1014.6
20260901133641 26 94 1.6 8.0 0.00 0.00 0.00 85 1014.6
20260901133141 26 94 8.0 8.0 0.00 0.00 0.00 86 1014.7
20260901132641 26 94 0.0 4.8 0.00 0.00 0.00 86 1014.6
20260901132141 25 94 1.6 3.2 0.00 0.00 0.00 87 1014.6
20260901131641 25 94 1.6 6.4 0.00 0.00 0.00 87 1014.6
20260901131141 25 94 0.0 6.4 0.00 0.00 0.00 87 1014.7
20260901130141 25 94 0.0 4.8 0.00 0.00 0.00 88 1014.5
20260901125641 25 94 0.0 4.8 0.00 0.00 0.00 88 1014.6
20260901124641 25 94 0.0 3.2 0.00 0.00 0.00 88 1014.8
20260901124140 25 94 0.0 3.2 0.00 0.00 0.00 88 1014.6
20260901123140 25 94 0.0 3.2 0.00 0.00 0.00 88 1014.6
20260901122640 25 94 0.0 3.2 0.00 0.00 0.00 88 1014.4
20260901121640 25 94 0.0 3.2 0.00 0.00 0.00 88 1014.2
20260901121141 25 94 0.0 3.2 0.00 0.00 0.00 88 1014.3
20260901120640 24 94 0.0 3.2 0.00 0.00 0.00 88 1014.2
20260901120140 24 94 1.6 3.2 0.00 0.00 0.00 88 1014.1
20260901115640 24 94 0.0 1.6 0.00 0.00 0.00 88 1014.2
20260901115140 24 94 1.6 1.6 0.00 0.00 0.00 88 1014.1
20260901114640 24 94 1.6 1.6 0.00 0.00 0.00 88 1014.1
20260901114140 24 94 1.6 1.6 0.00 0.00 0.00 88 1014.1
20260901113139 24 94 0.0 1.6 0.00 0.00 0.00 88 1013.9
20260901112639 24 94 0.0 4.8 0.00 0.00 0.00 88 1013.9
20260901112139 24 94 1.6 4.8 0.00 0.00 0.00 88 1013.9
20260901111640 24 94 0.0 3.2 0.00 0.00 0.00 88 1013.8
20260901111139 24 94 1.6 4.8 0.00 0.00 0.00 88 1013.8
20260901110639 24 94 0.0 4.8 0.00 0.00 0.00 88 1013.8
20260901110139 24 94 4.8 4.8 0.00 0.00 0.00 88 1013.7
20260901105639 24 94 0.0 1.6 0.00 0.00 0.00 88 1013.7
20260901105139 25 94 0.0 1.6 0.00 0.00 0.00 88 1013.8
20260901103638 25 94 0.0 4.8 0.00 0.00 0.00 87 1013.8
20260901103139 25 94 0.0 4.8 0.00 0.00 0.00 87 1013.6
20260901102638 25 94 0.0 3.2 0.00 0.00 0.00 88 1013.6
20260901102139 25 94 0.0 1.6 0.00 0.00 0.00 88 1013.7
20260901101639 25 94 0.0 3.2 0.00 0.00 0.00 88 1013.7
20260901101139 25 94 1.6 3.2 0.00 0.00 0.00 88 1013.7
20260901100638 25 94 0.0 3.2 0.00 0.00 0.00 87 1013.7
20260901100138 25 94 0.0 3.2 0.00 0.00 0.00 88 1013.6
20260901095638 25 94 0.0 1.6 0.00 0.00 0.00 87 1013.6
20260901094638 25 94 0.0 1.6 0.00 0.00 0.00 87 1013.6
20260901094138 25 94 0.0 3.2 0.00 0.00 0.00 87 1013.6
20260901093638 25 94 0.0 4.8 0.00 0.00 0.00 87 1013.6
20260901092638 25 94 0.0 4.8 0.00 0.00 0.00 87 1013.5
20260901091637 25 94 0.0 1.6 0.00 0.00 0.00 87 1013.4
20260901091138 25 94 0.0 0.0 0.00 0.00 0.00 87 1013.4
20260901085137 25 94 0.0 1.6 0.00 0.00 0.00 87 1013.4
20260901084137 25 94 1.6 3.2 0.00 0.00 0.00 87 1013.5
20260901083137 25 94 0.0 3.2 0.00 0.00 0.00 87 1013.5
20260901082137 25 94 0.0 3.2 0.00 0.00 0.00 88 1013.5
20260901081637 25 94 0.0 6.4 0.00 0.00 0.00 88 1013.5
20260901081137 25 94 0.0 6.4 0.00 0.00 0.00 88 1013.5
20260901075637 25 94 0.0 3.2 0.00 0.00 0.00 88 1013.5
20260901074136 25 94 4.8 4.8 0.00 0.00 0.00 89 1013.5
20260901073636 25 94 0.0 3.2 0.00 0.00 0.00 89 1013.6
20260901073136 25 94 0.0 4.8 0.00 0.00 0.00 89 1013.6
20260901072136 25 94 0.0 3.2 0.00 0.00 0.00 90 1013.6
20260901070636 25 94 0.0 0.0 0.00 0.00 0.00 90 1013.6
20260901070136 25 94 0.0 0.0 0.00 0.00 0.00 90 1013.5
20260901065635 25 94 0.0 0.0 0.00 0.00 0.00 90 1013.5
20260901065135 25 94 0.0 0.0 0.00 0.00 0.00 89 1013.6
20260901064635 25 94 0.0 0.0 0.00 0.00 0.00 89 1013.5
20260901064135 25 94 0.0 0.0 0.00 0.00 0.00 89 1013.6
20260901063636 25 94 0.0 0.0 0.00 0.00 0.00 89 1013.5
20260901063135 25 94 0.0 0.0 0.00 0.00 0.00 88 1013.5
20260901062635 26 94 0.0 0.0 0.00 0.00 0.00 88 1013.5
20260901061635 26 94 0.0 0.0 0.00 0.00 0.00 88 1013.5
20260901061136 26 94 0.0 0.0 0.00 0.00 0.00 88 1013.5